SCP
0 0 0 0 0 0 0 0 0 0 0 0 0 0 0 0 0 0 0 0 -0 -0 -0 -0 -1 -0 -0 -0 -0 -1 -1 -1 -0 -0 -0 -0 -0 -0 0 0 0 0 0 0 -0 -0 0 0 0
0 0 0 0 0 0 0 0 0 0 0 0 0 0 0 0 0 0 0 0 -0 -0 -0 -0 -0 -0 -0 -0 -1 -1 -1 -1 -0 -0 -0 -0 -0 0 0 0 0 0 0 0 -0 -0 -0 -0 0
0 0 0 0 0 0 0 0 0 0 0 0 0 0 0 0 0 0 0 0 0 0 -0 -0 -0 -0 -0 -0 -0 -0 -1 -1 -0 -0 -0 -0 -0 0 0 0 0 0 0 -0 -0 -0 -0 -0 0
0 0 0 0 0 0 0 0 0 0 0 0 0 0 0 0 0 0 0 0 0 0 0 -0 0 0 -0 -0 -0 -0 -0 -0 -0 -0 -0 -0 -0 0 0 0 0 0 0 -0 -0 -0 -0 0 0
0 0 0 0 0 0 0 0 0 0 0 0 0 0 0 0 0 0 0 0 0 0 0 0 0 0 0 0 0 0 0 -0 -0 -0 -0 -0 -0 0 0 0 0 0 0 0 0 0 0 0 0
0 0 0 0 0 0 0 0 0 0 0 0 0 0 0 0 0 0 0 -0 0 0 0 0 0 1 0 0 0 0 0 0 -0 -0 0 0 0 0 0 0 -0 -0 -0 -0 -0 -0 0 0 0
0 0 0 0 0 0 0 0 0 0 0 0 0 0 0 0 0 0 -0 -0 -0 0 0 1 0 0 1 1 1 0 0 0 0 -0 -0 -0 -0 -0 -0 -0 -0 -0 -0 -0 -0 -0 0 0 0
0 0 0 0 0 0 0 0 0 0 0 0 0 0 0 0 0 0 -0 -0 0 0 0 0 1 0 0 0 1 0 0 0 0 -0 -0 -0 -0 -0 -0 -0 -0 -0 -0 -0 -0 -0 0 0 0
0 0 0 0 0 0 0 0 0 0 0 0 0 0 0 0 0 0 0 0 0 0 0 0 0 0 0 0 0 0 0 0 0 0 -0 -0 -0 -0 -0 -0 0 -0 -0 0 -0 -0 0 0 0
0 0 0 0 0 0 0 0 0 0 0 0 0 0 0 0 0 0 0 0 0 0 0 0 0 0 0 0 1 0 0 0 0 -0 -0 -0 -0 -0 -0 -0 0 0 0 0 -0 -0 -0 0 -0
0 0 0 0 0 0 0 0 0 0 0 0 0 0 0 0 0 0 0 0 0 0 0 0 1 1 0 0 1 1 0 0 0 0 0 0 0 -0 -0 -0 0 0 0 0 0 0 0 -0 -0
0 0 0 0 0 0 0 0 0 0 0 0 0 0 0 0 0 0 0 0 0 0 0 1 1 2 1 1 1 1 1 0 0 0 0 1 0 0 0 0 0 0 0 0 0 0 0 0 0
0 0 0 0 0 0 0 0 0 0 0 0 0 0 0 0 0 0 0 0 0 0 0 0 1 2 4 3 2 2 2 1 1 1 1 1 0 1 0 0 0 0 0 0 0 0 0 0 0
0 0 0 0 0 0 0 0 0 0 0 0 0 0 0 0 0 0 0 0 0 0 0 1 1 2 3 3 5 4 4 2 2 1 1 2 1 1 0 1 0 0 0 0 0 0 0 0 0
0 0 0 0 0 0 0 0 0 0 0 0 0 0 0 0 0 0 0 0 0 0 1 1 1 1 2 2 3 4 2 2 1 2 4 3 3 2 1 1 1 0 0 0 0 0 0 0 0
0 0 0 0 0 0 0 0 0 0 0 0 0 0 0 0 0 0 0 0 0 0 0 1 1 1 1 2 2 3 2 2 2 2 2 3 3 4 2 1 1 1 1 0 0 0 0 0 0
0 0 0 0 0 0 0 0 0 0 0 0 0 0 0 0 0 0 0 0 0 0 0 0 1 1 1 2 2 2 3 2 2 2 2 3 3 3 4 2 2 2 1 1 0 0 0 0 1
0 0 0 0 0 0 0 0 0 0 0 0 0 0 0 0 0 0 0 0 0 0 0 0 0 1 0 2 2 2 2 2 3 3 2 4 4 4 4 3 3 2 1 1 1 2 1 0 0
0 0 0 0 0 0 0 0 0 0 0 0 0 0 0 0 0 0 0 0 0 0 0 0 0 1 3 3 2 2 2 3 3 5 4 3 4 3 5 4 5 4 4 4 3 4 2 1 1
0 0 0 0 0 0 0 0 0 0 0 0 0 0 0 0 0 0 0 0 0 0 0 0 0 1 2 3 5 5 4 2 3 3 4 4 4 4 6 3 3 -0 3 8 6 5 2 1 2
0 0 0 0 0 0 0 0 -0 0 0 0 0 0 0 0 0 0 0 0 0 0 0 0 0 1 1 3 5 6 5 4 3 3 4 5 4 3 5 5 5 4 1 2 4 5 4 3 3
0 0 0 0 0 0 0 0 0 0 0 0 0 0 0 0 0 0 0 0 0 0 0 0 0 1 1 2 1 5 5 6 5 5 4 4 3 3 3 4 4 5 2 3 5 5 4 5 6
0 0 0 0 0 0 0 0 0 0 0 0 0 0 0 0 0 0 0 0 0 0 0 0 0 0 1 2 2 3 4 4 5 5 7 5 4 3 3 4 4 3 3 5 7 7 8 6 6
0 0 0 0 0 0 0 0 0 0 0 0 0 0 0 0 0 0 0 0 0 0 0 0 0 0 0 1 2 4 7 6 6 7 7 6 5 5 5 4 4 4 5 4 5 5 5 5 3
0 0 0 0 0 0 0 0 0 0 0 0 0 0 0 0 0 0 0 0 0 0 0 0 0 0 0 1 1 2 4 9 8 11 6 6 5 5 10 8 7 6 6 6 5 4 3 3 3
0 0 0 0 0 0 0 0 0 0 0 0 0 0 0 0 0 0 0 0 0 0 0 0 0 0 0 0 1 2 3 4 5 6 6 4 5 10 10 9 8 7 6 5 6 6 5 3 3
0 0 0 0 0 0 0 0 0 0 0 0 0 0 0 0 0 0 0 0 0 0 0 0 0 0 0 0 1 2 3 5 5 7 8 8 10 9 6 7 7 7 6 5 5 5 5 5 4
0 0 0 0 0 0 0 0 0 0 0 0 0 0 0 0 0 0 0 0 0 0 0 0 0 0 0 0 1 1 4 4 5 7 7 6 7 7 4 5 6 5 6 5 5 5 5 5 4
0 0 0 0 0 0 0 0 0 0 0 0 0 0 0 0 0 0 0 0 0 0 0 0 0 0 0 1 1 1 1 1 2 2 3 4 4 3 3 2 2 3 5 6 8 7 6 3 4
0 0 0 0 0 0 0 0 0 0 0 0 0 0 0 0 0 0 0 0 0 0 0 0 0 0 0 1 3 2 2 2 2 3 2 2 3 2 2 2 2 2 4 6 6 5 3 2 2
Wind_Speed_500mb
16 20 15 7 13 12 20 11 3 5 4 7 10 10 15 12 14 7 2 24 33 40 43 46 48 52 55 52 50 46 45 45 42 36 29 27 31 34 35 34 33 30 28 25 24 23 22 23 22
17 16 11 8 15 18 16 9 9 9 12 5 2 6 5 8 8 6 16 28 34 41 45 49 48 49 50 49 47 46 48 48 44 36 29 29 34 36 36 35 32 30 28 26 24 23 22 21 20
15 12 20 9 16 21 6 14 9 9 9 11 2 7 5 9 11 4 14 27 39 40 44 48 49 49 48 47 45 48 52 52 46 39 31 30 34 35 35 33 32 29 27 25 23 22 22 21 19
9 15 12 18 21 7 6 15 5 2 8 15 7 9 10 15 7 4 24 25 35 37 41 44 48 49 48 46 43 47 52 53 48 42 35 34 35 35 34 32 30 28 25 23 20 19 18 18 17
10 16 18 22 25 6 12 5 5 7 1 9 10 8 15 20 20 13 21 20 29 35 38 44 47 48 47 46 43 45 52 55 50 45 39 38 39 37 35 33 30 28 25 21 19 17 15 14 12
21 16 20 28 26 14 15 14 16 11 6 7 3 12 20 17 14 6 10 13 24 33 37 43 49 47 46 45 46 45 51 55 53 49 43 41 42 40 37 34 31 29 26 23 20 16 14 11 9
27 19 32 32 22 18 21 15 20 12 14 4 16 14 9 20 22 5 7 14 24 32 36 39 50 51 49 47 46 47 48 53 56 54 48 46 44 41 39 37 33 30 27 24 19 16 13 11 9
21 13 34 28 24 37 13 18 9 15 12 10 9 3 0 21 20 7 8 14 24 32 37 39 50 53 54 53 50 48 48 51 54 57 53 50 47 45 41 38 35 32 28 24 21 17 15 12 10
15 16 25 32 27 25 17 22 15 16 27 25 21 25 21 25 21 13 14 19 25 34 39 39 42 47 52 49 54 51 49 53 54 55 56 54 51 48 45 41 38 34 31 26 23 19 15 13 13
24 22 32 17 23 22 21 22 21 22 29 31 33 32 29 27 25 24 21 26 32 34 38 37 40 42 45 44 46 55 54 56 58 61 61 58 50 38 36 44 42 38 34 29 25 21 19 17 14
23 28 26 17 28 26 28 27 24 25 29 32 29 30 31 29 31 30 27 31 35 34 38 40 43 44 45 44 43 48 47 51 55 60 62 63 51 39 41 34 46 43 39 33 29 24 21 18 18
18 31 24 23 22 30 31 28 28 27 28 29 32 30 28 30 32 33 30 26 33 40 41 43 45 48 50 46 47 45 49 49 50 63 67 59 56 55 45 34 32 42 36 36 29 21 23 21 18
28 20 25 30 29 30 28 35 30 31 22 28 23 26 27 26 26 27 28 28 28 38 43 47 48 53 59 66 50 52 56 53 52 56 67 68 60 61 59 49 38 33 30 30 30 27 23 19 18
17 20 22 22 27 26 24 33 30 18 15 22 27 26 28 27 25 22 21 23 27 32 44 43 50 56 62 68 73 69 69 57 62 57 70 75 71 64 60 59 52 37 33 28 26 25 24 21 19
13 20 24 29 30 24 20 29 33 25 17 17 19 21 18 21 23 21 21 23 20 21 29 39 46 50 63 66 70 77 63 64 58 63 75 80 80 77 70 58 53 56 40 42 33 32 29 26 23
19 15 24 15 15 17 15 22 13 5 14 19 21 19 19 17 18 20 20 21 19 21 26 31 38 45 60 66 68 66 63 59 58 57 62 84 83 82 76 70 62 50 56 45 39 28 25 24 23
20 23 20 12 14 11 20 16 12 19 25 24 24 27 26 25 22 23 26 26 28 30 34 36 39 45 52 57 60 59 59 64 60 59 61 76 84 86 81 63 57 58 54 49 43 40 31 29 25
24 24 17 20 13 18 22 30 26 21 24 24 28 27 31 34 32 30 30 33 39 42 42 43 46 54 54 56 56 54 59 66 66 69 66 74 84 86 78 60 55 52 54 51 54 50 48 36 30
14 17 21 18 16 23 29 31 27 30 34 36 35 33 33 36 37 37 36 35 37 47 53 53 55 59 67 58 56 55 66 68 73 81 73 71 84 80 75 77 63 70 53 68 62 60 56 52 36
22 26 26 22 22 20 30 37 31 30 37 37 30 33 34 32 35 38 40 39 41 42 49 54 60 63 72 67 76 78 73 63 64 60 69 74 76 75 83 85 84 94 88 72 72 66 64 55 40
29 27 24 25 26 27 36 40 40 31 29 27 32 27 32 32 32 38 44 46 47 47 45 49 54 51 60 77 69 65 59 60 61 64 66 77 77 68 76 88 102 90 85 83 69 65 59 46 33
28 24 24 25 25 26 5 28 33 26 20 19 28 31 20 33 37 40 46 49 50 53 52 51 54 65 61 60 69 75 75 75 79 69 64 65 72 71 74 87 99 89 79 74 68 68 57 49 36
26 11 22 26 31 35 37 25 30 15 27 28 16 18 28 28 31 38 41 45 52 52 52 54 56 64 65 60 65 76 83 80 70 62 59 67 62 69 74 77 80 81 79 72 63 61 59 51 51
21 23 31 32 27 33 40 37 28 17 6 24 27 31 26 30 39 43 45 46 47 48 50 48 51 60 60 59 61 78 85 85 71 65 57 54 56 62 73 72 79 76 68 60 62 64 65 64 64
23 28 26 31 28 31 26 18 25 27 22 24 25 37 29 33 39 44 48 49 43 43 44 47 48 53 55 55 57 69 81 83 80 66 57 49 51 53 67 74 66 57 59 55 60 61 63 65 63
34 30 26 34 28 29 23 24 16 3 23 25 20 17 20 30 41 48 52 55 51 48 49 50 47 50 52 51 53 59 70 72 72 68 61 53 50 59 59 61 56 56 47 46 44 45 50 50 63
19 23 24 35 37 34 33 42 36 22 16 18 13 18 28 36 43 48 50 51 53 50 53 53 52 50 44 48 47 50 55 67 69 68 63 53 57 47 50 49 54 54 45 43 42 47 47 57 62
19 14 16 15 17 33 20 26 25 15 13 11 22 37 29 39 47 48 50 52 51 39 41 40 44 46 39 36 40 40 49 56 60 60 62 53 50 49 45 43 44 44 45 43 42 40 43 47 49
16 22 22 22 21 19 31 17 13 4 26 30 28 27 44 50 50 47 46 45 42 33 36 41 35 36 26 22 26 30 36 35 37 42 45 50 56 46 42 37 40 41 40 36 36 35 34 35 39
25 33 30 16 20 21 25 32 34 14 15 10 30 44 48 43 40 38 37 38 36 32 32 30 29 23 21 8 12 20 23 37 34 36 38 33 37 43 36 29 28 30 31 32 30 30 28 26 24
Wind_Direction_500mb
329 323 315 256 237 237 233 172 81 84 185 358 313 301 9 351 344 11 176 160 158 163 175 180 179 178 179 181 184 185 186 182 175 168 164 161 162 158 157 158 159 157 148 147 144 139 137 130 127
319 325 269 249 251 214 194 120 131 61 39 29 137 225 245 63 18 54 120 166 162 167 175 182 180 182 183 184 187 189 190 186 181 177 174 170 168 164 162 161 161 157 153 150 149 145 139 135 134
308 314 269 246 242 243 187 173 111 52 52 44 127 23 21 35 36 74 161 156 161 168 177 186 183 184 184 185 186 190 191 187 185 184 182 181 176 171 169 166 163 160 156 155 153 151 147 147 145
269 239 228 244 222 226 322 140 52 21 94 48 104 74 97 39 21 35 158 154 167 170 175 188 187 186 187 187 189 188 193 192 191 189 189 188 184 179 175 172 170 163 162 160 157 156 153 155 156
246 249 250 234 235 184 229 241 291 309 7 43 20 76 80 37 40 93 151 160 174 176 178 188 190 191 192 191 192 193 195 197 197 197 198 193 189 185 181 179 176 171 170 168 167 163 161 160 161
225 260 236 230 212 205 243 246 267 262 277 9 335 320 74 49 27 71 167 177 180 182 180 193 192 195 199 199 199 200 200 201 203 203 206 201 194 189 188 187 183 179 178 178 176 174 174 173 174
240 224 244 246 242 231 233 250 252 286 264 157 333 299 93 26 20 28 198 188 186 186 184 195 197 197 202 206 207 207 209 208 209 209 209 206 201 197 195 193 190 188 187 185 184 186 191 193 204
240 255 251 241 238 245 211 230 240 263 285 296 294 269 50 354 359 321 228 207 194 196 192 195 201 203 203 206 210 211 213 214 216 212 211 209 205 203 203 201 196 194 193 193 192 197 205 212 225
213 239 237 229 238 240 245 237 208 280 273 275 270 283 285 312 323 317 239 222 208 206 203 198 200 200 202 205 212 211 215 215 216 219 215 209 208 208 208 207 204 201 199 201 202 205 215 227 240
215 228 237 235 240 252 249 254 269 279 273 269 273 274 279 292 294 295 265 235 225 217 211 209 204 207 201 200 207 211 214 216 216 215 217 213 209 212 209 214 208 205 206 207 211 215 224 235 242
208 239 241 233 244 258 266 270 262 262 269 271 283 284 279 278 276 281 274 246 233 228 221 215 211 209 206 206 206 205 208 212 215 214 210 210 211 212 213 216 212 209 209 211 217 222 234 247 242
219 235 253 254 257 255 264 275 263 258 268 278 277 278 279 274 263 258 263 247 234 227 226 221 217 212 213 209 211 208 206 207 210 213 213 208 209 213 212 213 217 218 216 214 215 223 232 247 247
227 223 234 245 253 263 276 269 272 270 269 268 269 280 276 272 266 261 256 253 242 236 229 227 221 227 227 213 215 211 210 211 211 214 216 214 215 217 216 213 212 219 218 224 221 224 239 244 237
196 234 241 247 251 254 255 268 260 256 265 265 277 272 273 269 270 275 272 266 259 250 238 234 230 236 236 233 217 223 218 212 212 213 219 219 220 223 220 219 220 218 218 224 232 232 236 239 240
199 236 225 245 251 251 277 264 250 259 264 262 275 282 278 279 283 283 281 282 284 263 242 233 237 230 241 242 230 229 225 220 218 216 222 225 224 224 223 222 223 228 229 225 233 245 249 246 245
227 242 247 173 217 215 221 263 141 252 219 274 278 275 274 274 284 295 306 302 297 278 256 253 241 236 239 239 241 229 225 223 222 223 223 228 227 227 228 228 229 226 234 243 248 244 248 252 253
203 252 210 235 215 239 218 275 154 270 283 283 278 273 268 271 277 286 297 299 294 291 285 278 258 242 238 245 238 232 228 228 223 222 224 230 229 229 228 227 232 235 241 242 239 243 242 244 250
236 225 229 248 178 218 256 263 267 263 261 270 274 268 268 270 270 275 282 290 291 284 278 272 272 262 251 245 242 231 226 227 224 224 223 227 232 231 231 229 240 249 255 247 248 249 252 250 248
267 261 257 255 264 267 265 270 273 270 273 275 273 270 270 272 279 280 279 281 288 280 277 273 269 267 258 240 235 233 230 227 228 223 225 225 230 227 224 231 232 254 251 259 255 252 248 251 240
239 253 253 264 260 272 270 270 269 265 269 269 274 276 276 289 291 293 292 290 286 285 282 274 274 267 260 242 246 246 243 230 228 226 226 228 230 227 223 223 219 224 238 238 252 254 247 246 241
238 250 266 274 289 275 265 268 256 239 229 261 263 267 282 292 305 303 299 295 292 287 280 282 275 273 277 251 241 237 232 232 228 225 225 229 229 225 222 222 223 230 234 244 241 243 240 224 221
250 235 251 270 272 276 153 287 286 265 266 244 256 267 297 303 307 309 309 307 300 285 281 278 273 271 274 275 244 235 229 226 230 227 229 226 230 220 225 222 224 230 233 237 241 244 234 224 215
256 289 264 277 276 281 268 264 268 247 224 259 268 277 294 305 308 312 314 314 309 304 287 278 274 269 269 261 254 235 236 234 234 230 225 232 230 224 226 224 222 228 232 239 237 242 235 239 232
268 268 258 258 264 262 264 253 270 258 293 290 304 306 295 301 305 309 313 313 314 310 301 289 276 270 268 265 248 238 228 232 227 228 222 220 217 217 220 218 220 222 228 232 239 243 247 245 250
242 259 268 264 251 255 260 260 269 292 285 293 310 303 305 307 316 319 318 316 314 322 319 310 290 275 269 266 253 238 234 227 224 220 222 220 217 213 212 214 216 221 229 232 241 245 244 247 249
269 251 258 272 271 283 295 261 267 122 287 288 304 287 297 318 325 324 323 321 311 310 320 317 314 290 267 259 251 242 234 230 229 225 223 222 219 213 215 208 212 219 222 229 230 231 239 244 253
261 241 282 283 280 272 269 261 253 217 260 266 246 275 296 307 310 315 318 321 314 308 313 315 314 307 280 259 252 242 233 226 224 219 219 215 216 211 212 205 212 218 218 223 227 235 239 246 249
256 338 245 235 273 271 259 286 279 247 268 277 297 296 296 303 309 309 311 316 318 307 318 314 316 310 293 263 246 237 228 223 223 215 211 204 199 199 214 202 206 210 219 225 229 234 237 237 244
212 232 236 286 263 273 286 271 96 295 280 292 290 288 301 310 307 307 310 312 314 300 316 334 329 330 313 268 235 221 207 196 195 196 189 199 198 205 210 205 213 222 221 215 217 219 227 225 230
258 276 268 238 259 239 257 267 278 314 311 295 278 290 308 307 299 301 310 314 322 311 315 319 350 350 345 316 204 198 196 185 186 191 186 191 192 192 187 187 189 195 195 197 196 199 210 199 196
Wind_Speed_850mb
16 20 15 7 13 12 20 11 3 5 4 7 10 10 15 12 14 7 2 24 33 40 43 46 48 52 55 52 50 46 45 45 42 36 29 27 31 34 35 34 33 30 28 25 24 23 22 23 22
17 16 11 8 15 18 16 9 9 9 12 5 2 6 5 8 8 6 16 28 34 41 45 49 48 49 50 49 47 46 48 48 44 36 29 29 34 36 36 35 32 30 28 26 24 23 22 21 20
15 12 20 9 16 21 6 14 9 9 9 11 2 7 5 9 11 4 14 27 39 40 44 48 49 49 48 47 45 48 52 52 46 39 31 30 34 35 35 33 32 29 27 25 23 22 22 21 19
9 15 12 18 21 7 6 15 5 2 8 15 7 9 10 15 7 4 24 25 35 37 41 44 48 49 48 46 43 47 52 53 48 42 35 34 35 35 34 32 30 28 25 23 20 19 18 18 17
10 16 18 22 25 6 12 5 5 7 1 9 10 8 15 20 20 13 21 20 29 35 38 44 47 48 47 46 43 45 52 55 50 45 39 38 39 37 35 33 30 28 25 21 19 17 15 14 12
21 16 20 28 26 14 15 14 16 11 6 7 3 12 20 17 14 6 10 13 24 33 37 43 49 47 46 45 46 45 51 55 53 49 43 41 42 40 37 34 31 29 26 23 20 16 14 11 9
27 19 32 32 22 18 21 15 20 12 14 4 16 14 9 20 22 5 7 14 24 32 36 39 50 51 49 47 46 47 48 53 56 54 48 46 44 41 39 37 33 30 27 24 19 16 13 11 9
21 13 34 28 24 37 13 18 9 15 12 10 9 3 0 21 20 7 8 14 24 32 37 39 50 53 54 53 50 48 48 51 54 57 53 50 47 45 41 38 35 32 28 24 21 17 15 12 10
15 16 25 32 27 25 17 22 15 16 27 25 21 25 21 25 21 13 14 19 25 34 39 39 42 47 52 49 54 51 49 53 54 55 56 54 51 48 45 41 38 34 31 26 23 19 15 13 13
24 22 32 17 23 22 21 22 21 22 29 31 33 32 29 27 25 24 21 26 32 34 38 37 40 42 45 44 46 55 54 56 58 61 61 58 50 38 36 44 42 38 34 29 25 21 19 17 14
23 28 26 17 28 26 28 27 24 25 29 32 29 30 31 29 31 30 27 31 35 34 38 40 43 44 45 44 43 48 47 51 55 60 62 63 51 39 41 34 46 43 39 33 29 24 21 18 18
18 31 24 23 22 30 31 28 28 27 28 29 32 30 28 30 32 33 30 26 33 40 41 43 45 48 50 46 47 45 49 49 50 63 67 59 56 55 45 34 32 42 36 36 29 21 23 21 18
28 20 25 30 29 30 28 35 30 31 22 28 23 26 27 26 26 27 28 28 28 38 43 47 48 53 59 66 50 52 56 53 52 56 67 68 60 61 59 49 38 33 30 30 30 27 23 19 18
17 20 22 22 27 26 24 33 30 18 15 22 27 26 28 27 25 22 21 23 27 32 44 43 50 56 62 68 73 69 69 57 62 57 70 75 71 64 60 59 52 37 33 28 26 25 24 21 19
13 20 24 29 30 24 20 29 33 25 17 17 19 21 18 21 23 21 21 23 20 21 29 39 46 50 63 66 70 77 63 64 58 63 75 80 80 77 70 58 53 56 40 42 33 32 29 26 23
19 15 24 15 15 17 15 22 13 5 14 19 21 19 19 17 18 20 20 21 19 21 26 31 38 45 60 66 68 66 63 59 58 57 62 84 83 82 76 70 62 50 56 45 39 28 25 24 23
20 23 20 12 14 11 20 16 12 19 25 24 24 27 26 25 22 23 26 26 28 30 34 36 39 45 52 57 60 59 59 64 60 59 61 76 84 86 81 63 57 58 54 49 43 40 31 29 25
24 24 17 20 13 18 22 30 26 21 24 24 28 27 31 34 32 30 30 33 39 42 42 43 46 54 54 56 56 54 59 66 66 69 66 74 84 86 78 60 55 52 54 51 54 50 48 36 30
14 17 21 18 16 23 29 31 27 30 34 36 35 33 33 36 37 37 36 35 37 47 53 53 55 59 67 58 56 55 66 68 73 81 73 71 84 80 75 77 63 70 53 68 62 60 56 52 36
22 26 26 22 22 20 30 37 31 30 37 37 30 33 34 32 35 38 40 39 41 42 49 54 60 63 72 67 76 78 73 63 64 60 69 74 76 75 83 85 84 94 88 72 72 66 64 55 40
29 27 24 25 26 27 36 40 40 31 29 27 32 27 32 32 32 38 44 46 47 47 45 49 54 51 60 77 69 65 59 60 61 64 66 77 77 68 76 88 102 90 85 83 69 65 59 46 33
28 24 24 25 25 26 5 28 33 26 20 19 28 31 20 33 37 40 46 49 50 53 52 51 54 65 61 60 69 75 75 75 79 69 64 65 72 71 74 87 99 89 79 74 68 68 57 49 36
26 11 22 26 31 35 37 25 30 15 27 28 16 18 28 28 31 38 41 45 52 52 52 54 56 64 65 60 65 76 83 80 70 62 59 67 62 69 74 77 80 81 79 72 63 61 59 51 51
21 23 31 32 27 33 40 37 28 17 6 24 27 31 26 30 39 43 45 46 47 48 50 48 51 60 60 59 61 78 85 85 71 65 57 54 56 62 73 72 79 76 68 60 62 64 65 64 64
23 28 26 31 28 31 26 18 25 27 22 24 25 37 29 33 39 44 48 49 43 43 44 47 48 53 55 55 57 69 81 83 80 66 57 49 51 53 67 74 66 57 59 55 60 61 63 65 63
34 30 26 34 28 29 23 24 16 3 23 25 20 17 20 30 41 48 52 55 51 48 49 50 47 50 52 51 53 59 70 72 72 68 61 53 50 59 59 61 56 56 47 46 44 45 50 50 63
19 23 24 35 37 34 33 42 36 22 16 18 13 18 28 36 43 48 50 51 53 50 53 53 52 50 44 48 47 50 55 67 69 68 63 53 57 47 50 49 54 54 45 43 42 47 47 57 62
19 14 16 15 17 33 20 26 25 15 13 11 22 37 29 39 47 48 50 52 51 39 41 40 44 46 39 36 40 40 49 56 60 60 62 53 50 49 45 43 44 44 45 43 42 40 43 47 49
16 22 22 22 21 19 31 17 13 4 26 30 28 27 44 50 50 47 46 45 42 33 36 41 35 36 26 22 26 30 36 35 37 42 45 50 56 46 42 37 40 41 40 36 36 35 34 35 39
25 33 30 16 20 21 25 32 34 14 15 10 30 44 48 43 40 38 37 38 36 32 32 30 29 23 21 8 12 20 23 37 34 36 38 33 37 43 36 29 28 30 31 32 30 30 28 26 24
Wind_Direction_850mb
329 323 315 256 237 237 233 172 81 84 185 358 313 301 9 351 344 11 176 160 158 163 175 180 179 178 179 181 184 185 186 182 175 168 164 161 162 158 157 158 159 157 148 147 144 139 137 130 127
319 325 269 249 251 214 194 120 131 61 39 29 137 225 245 63 18 54 120 166 162 167 175 182 180 182 183 184 187 189 190 186 181 177 174 170 168 164 162 161 161 157 153 150 149 145 139 135 134
308 314 269 246 242 243 187 173 111 52 52 44 127 23 21 35 36 74 161 156 161 168 177 186 183 184 184 185 186 190 191 187 185 184 182 181 176 171 169 166 163 160 156 155 153 151 147 147 145
269 239 228 244 222 226 322 140 52 21 94 48 104 74 97 39 21 35 158 154 167 170 175 188 187 186 187 187 189 188 193 192 191 189 189 188 184 179 175 172 170 163 162 160 157 156 153 155 156
246 249 250 234 235 184 229 241 291 309 7 43 20 76 80 37 40 93 151 160 174 176 178 188 190 191 192 191 192 193 195 197 197 197 198 193 189 185 181 179 176 171 170 168 167 163 161 160 161
225 260 236 230 212 205 243 246 267 262 277 9 335 320 74 49 27 71 167 177 180 182 180 193 192 195 199 199 199 200 200 201 203 203 206 201 194 189 188 187 183 179 178 178 176 174 174 173 174
240 224 244 246 242 231 233 250 252 286 264 157 333 299 93 26 20 28 198 188 186 186 184 195 197 197 202 206 207 207 209 208 209 209 209 206 201 197 195 193 190 188 187 185 184 186 191 193 204
240 255 251 241 238 245 211 230 240 263 285 296 294 269 50 354 359 321 228 207 194 196 192 195 201 203 203 206 210 211 213 214 216 212 211 209 205 203 203 201 196 194 193 193 192 197 205 212 225
213 239 237 229 238 240 245 237 208 280 273 275 270 283 285 312 323 317 239 222 208 206 203 198 200 200 202 205 212 211 215 215 216 219 215 209 208 208 208 207 204 201 199 201 202 205 215 227 240
215 228 237 235 240 252 249 254 269 279 273 269 273 274 279 292 294 295 265 235 225 217 211 209 204 207 201 200 207 211 214 216 216 215 217 213 209 212 209 214 208 205 206 207 211 215 224 235 242
208 239 241 233 244 258 266 270 262 262 269 271 283 284 279 278 276 281 274 246 233 228 221 215 211 209 206 206 206 205 208 212 215 214 210 210 211 212 213 216 212 209 209 211 217 222 234 247 242
219 235 253 254 257 255 264 275 263 258 268 278 277 278 279 274 263 258 263 247 234 227 226 221 217 212 213 209 211 208 206 207 210 213 213 208 209 213 212 213 217 218 216 214 215 223 232 247 247
227 223 234 245 253 263 276 269 272 270 269 268 269 280 276 272 266 261 256 253 242 236 229 227 221 227 227 213 215 211 210 211 211 214 216 214 215 217 216 213 212 219 218 224 221 224 239 244 237
196 234 241 247 251 254 255 268 260 256 265 265 277 272 273 269 270 275 272 266 259 250 238 234 230 236 236 233 217 223 218 212 212 213 219 219 220 223 220 219 220 218 218 224 232 232 236 239 240
199 236 225 245 251 251 277 264 250 259 264 262 275 282 278 279 283 283 281 282 284 263 242 233 237 230 241 242 230 229 225 220 218 216 222 225 224 224 223 222 223 228 229 225 233 245 249 246 245
227 242 247 173 217 215 221 263 141 252 219 274 278 275 274 274 284 295 306 302 297 278 256 253 241 236 239 239 241 229 225 223 222 223 223 228 227 227 228 228 229 226 234 243 248 244 248 252 253
203 252 210 235 215 239 218 275 154 270 283 283 278 273 268 271 277 286 297 299 294 291 285 278 258 242 238 245 238 232 228 228 223 222 224 230 229 229 228 227 232 235 241 242 239 243 242 244 250
236 225 229 248 178 218 256 263 267 263 261 270 274 268 268 270 270 275 282 290 291 284 278 272 272 262 251 245 242 231 226 227 224 224 223 227 232 231 231 229 240 249 255 247 248 249 252 250 248
267 261 257 255 264 267 265 270 273 270 273 275 273 270 270 272 279 280 279 281 288 280 277 273 269 267 258 240 235 233 230 227 228 223 225 225 230 227 224 231 232 254 251 259 255 252 248 251 240
239 253 253 264 260 272 270 270 269 265 269 269 274 276 276 289 291 293 292 290 286 285 282 274 274 267 260 242 246 246 243 230 228 226 226 228 230 227 223 223 219 224 238 238 252 254 247 246 241
238 250 266 274 289 275 265 268 256 239 229 261 263 267 282 292 305 303 299 295 292 287 280 282 275 273 277 251 241 237 232 232 228 225 225 229 229 225 222 222 223 230 234 244 241 243 240 224 221
250 235 251 270 272 276 153 287 286 265 266 244 256 267 297 303 307 309 309 307 300 285 281 278 273 271 274 275 244 235 229 226 230 227 229 226 230 220 225 222 224 230 233 237 241 244 234 224 215
256 289 264 277 276 281 268 264 268 247 224 259 268 277 294 305 308 312 314 314 309 304 287 278 274 269 269 261 254 235 236 234 234 230 225 232 230 224 226 224 222 228 232 239 237 242 235 239 232
268 268 258 258 264 262 264 253 270 258 293 290 304 306 295 301 305 309 313 313 314 310 301 289 276 270 268 265 248 238 228 232 227 228 222 220 217 217 220 218 220 222 228 232 239 243 247 245 250
242 259 268 264 251 255 260 260 269 292 285 293 310 303 305 307 316 319 318 316 314 322 319 310 290 275 269 266 253 238 234 227 224 220 222 220 217 213 212 214 216 221 229 232 241 245 244 247 249
269 251 258 272 271 283 295 261 267 122 287 288 304 287 297 318 325 324 323 321 311 310 320 317 314 290 267 259 251 242 234 230 229 225 223 222 219 213 215 208 212 219 222 229 230 231 239 244 253
261 241 282 283 280 272 269 261 253 217 260 266 246 275 296 307 310 315 318 321 314 308 313 315 314 307 280 259 252 242 233 226 224 219 219 215 216 211 212 205 212 218 218 223 227 235 239 246 249
256 338 245 235 273 271 259 286 279 247 268 277 297 296 296 303 309 309 311 316 318 307 318 314 316 310 293 263 246 237 228 223 223 215 211 204 199 199 214 202 206 210 219 225 229 234 237 237 244
212 232 236 286 263 273 286 271 96 295 280 292 290 288 301 310 307 307 310 312 314 300 316 334 329 330 313 268 235 221 207 196 195 196 189 199 198 205 210 205 213 222 221 215 217 219 227 225 230
258 276 268 238 259 239 257 267 278 314 311 295 278 290 308 307 299 301 310 314 322 311 315 319 350 350 345 316 204 198 196 185 186 191 186 191 192 192 187 187 189 195 195 197 196 199 210 199 196